FENGYUN 1C DEB, 31071

Orbit data source: Space-Track

FENGYUN 1C DEB, 31071 is space debris in SSO originally from a launch on Mon, 10 May 1999 UTC launched from the Taiyaun Space Center, China (TSC). Fengyun 1C debris stems from the Chinese weather satellite Fengyun-1C, which was intentionally destroyed by a Chinese anti-satellite missile in 2007. This event dramatically increased the amount of space debris, with thousands of trackable fragments posing hazards to satellites and human spaceflight. The Fengyun 1C debris cloud has become a focal point in discussions about space sustainability and the need for international regulations to prevent the creation of new debris.

Loading next visibility...
Identifier
31071, 1999-025BFR
Orbit
SSO
Country
Flag of CNCN / PRC
Related business
Manufacturer
Unknown
Mission
Spacecraft
Bus & Motor
Unknown
Mass
Unknown
Launch date (UTC)
1999-05-10 (27 years ago)
Launch vehicle
Unknown
Launch site
Taiyaun Space Center, China (TSC)
Object type
Payload
Rocket body
Debris
Shape & HBR
Unknown shape, 0.1 m
Radar Cross Section
Small (<0.1 m²)

Expand to show TLE details & history
Last TLE update: 5 days ago

TLE from 5 days ago
0 FENGYUN 1C DEB
1 31071U 99025BFR 26169.51741471  .00002639  00000-0  62198-3 0  9990
2 31071  99.0327 266.8581 0055778  77.5634 283.1795 14.54291162682224
Epoch: 2026-06-18T12:25Z
TLE epoch observation values (Epoch: 2026-06-18T12:25:04.630Z)
Latitude
0.00001°
Longitude
173.8292°
Altitude
705.81 km
Speed
7.508 km/s
True Right ascension
17h 47m 25s
True Declination
0° 00' 00"
Sunlit
Object was in full shadow at epoch
Visualization orbit readout
Latitude
Unknown
Longitude
Unknown
Altitude
Unknown
Speed
Unknown
Apparent Right ascension
Unknown
Apparent Declination
Unknown
Sunlit
N/A
Visualization observer readout
Local Sidereal Time
15:37:43
Azimuth
Unknown
Elevation
Unknown
Doppler factor
Unknown
Orbital elements
Apogee altitude
748.326 km
Perigee altitude
669.267 km
Semi-major axis
7,086.933 km
Eccentricity
0.00558
Inclination
99.0327°
RAAN
266.8581°
Arg. of periapsis
77.5634°
True anomaly
282.55619°
Mean anomaly
283.1795°
Eccentric anomaly
282.86794°
Mean motion
3.63794 °/min
Orbital period
98.96 mins
BSTAR
0.00062198
Loading maneuver chart data...
Computing Atmospheric mass density...

Documentation

Showing up to 5 results
|